Aérodrome :
LOGIN :

S'inscrire | Disclaimer

   EN    FR    IT 

 










Légende :    VFR   VFR Marginal   IFR   IFR Intensif   IFR Très Intensif
Visi : 
Plafond : 
>= 8 km
>= 3000ft
5 à 8 km
1000 à 3000 ft
1500m à 5 km
500 à 1000 ft
800 à 1500m
200 à 500 ft
< 800m
< 200 ft
Symboles :   Orages  Brouillard  Fortes neiges  Fortes précipitations  Vent > 20 kt
SIGMETs :   Divers  Orages  Givrage  Turbulence  Onde Orograph.  Cendres Volcan.







- Altitude de l'aérodrome : 1043 ft
- Code IATA : SLD


LZSL - Sliac

DERNIER METAR :
  • 190230Z VRB01KT CAVOK M09/M10 Q1021

METARs EXPIRÉS :
  • 190200Z VRB01KT CAVOK M08/M10 Q1021
  • 190130Z 03003KT CAVOK M07/M09 Q1021
  • 190100Z 00000KT CAVOK M07/M09 Q1020
  • 190030Z VRB01KT CAVOK M07/M10 Q1020
  • 190000Z VRB02KT CAVOK M06/M09 Q1020

TAF TAF LZSL
Valide du 19 à 03h jusqu'au 19 à 12h UTC


190200Z 1903/1912 VRB02KT CAVOK
TEMPO 1905/1910 9999 SCT030
Pas de NOTAMs connus pour ce terrain.



MET'MAP, la Météo Aéronautique d'un coup d'oeil ! - Copyright ORBIFLY Décembre 2007 - Disclaimer

ORBIFLY MET'MAP TEAM :

Programmation & Développement : Alexandra Zaïnal
Conception & Développement : Baudouin d'Aumeries
Co-Programmation & Développement : Marc-Olivier Méhu
Soutien technique & logistique : Manuel Goepfert

Contact : metmap@orbifly.com




SOURCES & CREDITS :

   NOAA